Time,TemperatureF,DewpointF,PressureIn,WindDirection,WindDirectionDegrees,WindSpeedMPH,WindSpeedGustMPH,Humidity,HourlyPrecipIn,Conditions,Clouds,dailyrainin,SoftwareType,DateUTC
2013-10-30 02:10:00,62.0,-99.9,-100.00,ENE,74,3.0,4.0,-999,-99.99,,,-99.99,,2013-10-30 07:10:00,
2013-10-30 02:52:00,62.0,-99.9,-100.00,ENE,74,3.0,4.0,-999,-99.99,,,-99.99,,2013-10-30 07:52:00,
2013-10-30 03:03:00,62.0,-99.9,-100.00,ENE,74,3.0,4.0,-999,-99.99,,,-99.99,,2013-10-30 08:03:00,
2013-10-30 03:50:00,62.0,-99.9,-100.00,NNW,335,4.0,10.0,-999,-99.99,,,-99.99,,2013-10-30 08:50:00,
2013-10-30 04:43:00,62.0,-99.9,-100.00,NNW,335,4.0,10.0,-999,-99.99,,,-99.99,,2013-10-30 09:43:00,
2013-10-30 07:10:00,63.0,-99.9,-100.00,SE,140,4.0,9.0,-999,-99.99,,,-99.99,,2013-10-30 12:10:00,
2013-10-30 07:52:00,63.0,-99.9,-100.00,SE,140,4.0,9.0,-999,-99.99,,,-99.99,,2013-10-30 12:52:00,
2013-10-30 08:02:00,63.0,-99.9,-100.00,SE,140,4.0,9.0,-999,-99.99,,,-99.99,,2013-10-30 13:02:00,
2013-10-30 09:22:00,61.0,-99.9,-100.00,NW,307,6.0,6.0,-999,-99.99,,,-99.99,,2013-10-30 14:22:00,
2013-10-30 09:32:00,61.0,-99.9,-100.00,NW,307,6.0,6.0,-999,-99.99,,,-99.99,,2013-10-30 14:32:00,
2013-10-30 09:42:00,61.0,-99.9,-100.00,NW,307,6.0,6.0,-999,-99.99,,,-99.99,,2013-10-30 14:42:00,
2013-10-30 11:00:00,68.0,-99.9,-100.00,WSW,241,7.0,9.0,-999,-99.99,,,-99.99,,2013-10-30 16:00:00,
2013-10-30 11:43:00,68.0,-99.9,-100.00,WSW,241,7.0,9.0,-999,-99.99,,,-99.99,,2013-10-30 16:43:00,
2013-10-30 11:54:00,68.0,-99.9,-100.00,WSW,241,7.0,9.0,-999,-99.99,,,-99.99,,2013-10-30 16:54:00,
2013-10-30 13:12:00,69.0,-99.9,-100.00,SSW,205,3.0,9.0,-999,-99.99,,,-99.99,,2013-10-30 18:12:00,
2013-10-30 13:22:00,69.0,-99.9,-100.00,SSW,205,3.0,9.0,-999,-99.99,,,-99.99,,2013-10-30 18:22:00,
2013-10-30 14:00:00,69.0,-99.9,-100.00,ESE,123,13.0,13.0,-999,-99.99,,,-99.99,,2013-10-30 19:00:00,
2013-10-30 14:42:00,69.0,-99.9,-100.00,ESE,123,13.0,13.0,-999,-99.99,,,-99.99,,2013-10-30 19:42:00,
2013-10-30 14:52:00,69.0,-99.9,-100.00,ESE,123,13.0,13.0,-999,-99.99,,,-99.99,,2013-10-30 19:52:00,
2013-10-30 15:52:00,70.0,-99.9,-100.00,North,2,5.0,14.0,-999,-99.99,,,-99.99,,2013-10-30 20:52:00,
2013-10-30 16:02:00,70.0,-99.9,-100.00,North,2,5.0,14.0,-999,-99.99,,,-99.99,,2013-10-30 21:02:00,
2013-10-30 17:43:00,69.0,-99.9,-100.00,NNW,338,6.0,15.0,-999,-99.99,,,-99.99,,2013-10-30 22:43:00,
2013-10-30 17:50:00,65.0,-99.9,-100.00,SW,223,6.0,11.0,-999,-99.99,,,-99.99,,2013-10-30 22:50:00,
2013-10-30 18:42:00,65.0,-99.9,-100.00,SW,223,6.0,11.0,-999,-99.99,,,-99.99,,2013-10-30 23:42:00,
2013-10-30 20:50:00,59.0,-99.9,-100.00,South,172,10.0,12.0,-999,-99.99,,,-99.99,,2013-10-31 01:50:00,
2013-10-30 23:20:00,60.0,-99.9,-100.00,NNW,344,9.0,11.0,-999,-99.99,,,-99.99,,2013-10-31 04:20:00,